FALCON 9 DEB (46387 NORAD) Tracking and Keplerian Element Data

This shows tracking and keplerian element data for the satellite.

Feedback or suggestion? Click here.




ElementValue
Catalog46387
NameFALCON 9 DEB
Epoch Orbit384
Epoch Day267.43614723
Epoch Year2020
RAAN327.5687
Inclination52.9964
Eccentricity0.0053561
Argument of Perigee114.1387
Mean Anonmoly246.5263
Mean Motion16.16412034
Decay Rate0.0083538
L11 46387U 20062BQ 20267.43614723 .00835380 11747-4 41781-3 0 9990
L22 46387 52.9964 327.5687 0053561 114.1387 246.5263 16.16412034 3849

Live tracking and technical data element details for FALCON 9 DEB (NORAD 46387). FALCON 9 DEB can be tracked NOW for your location showing map with azimuth and elevation plus other details from your city location.

Track the satellite on the map from your city or location and see movement details for azimuth, elevation, latitude, longitude, range, height, and movement on the map or in text.







IsCatalogInMostPopularTable: catalog: 46387, numindb: 3
Update: records affected: 1



GetName: 46387 FALCON 9 DEB

Hit Count: updated at: Thu, 24 Sep 2020 16:51:04 GMT